START_TIME,STEP,MOV.,M34,t_acc.,L5,t_acc.,L18,t_acc.,L14,t_acc.
1979-08-05 00:00:23.330 ,0,0,0.,12.0,0.,12.0,0.,12.0,0.,12.0
1979-08-05 00:00:35.330 ,0,0,0.,12.0,0.,12.0,0.,12.0,0.,12.0
1979-08-05 00:00:47.330 ,1,1,0.,12.0,0.,12.0,0.,12.0,0.,12.0
1979-08-05 00:00:59.330 ,1,1,0.,12.0,0.,12.0,0.,12.0,0.,12.0
1979-08-05 00:01:11.330 ,1,0,0.,12.0,0.,12.0,0.,12.0,0.,12.0
1979-08-05 00:01:23.330 ,1,0,0.,12.0,0.,12.0,0.,12.0,0.,12.0
1979-08-05 00:01:35.330 ,2,1,0.,12.0,0.,12.0,0.,12.0,0.,12.0
1979-08-05 00:01:47.330 ,2,1,0.,12.0,0.,12.0,0.,12.0,0.,12.0
1979-08-05 00:01:59.330 ,2,0,0.,12.0,0.,12.0,0.,12.0,0.,12.0
1979-08-05 00:02:11.330 ,2,0,0.,12.0,0.,12.0,0.,12.0,0.,12.0
1979-08-05 00:02:23.330 ,3,1,0.,12.0,0.,12.0,0.,12.0,0.,12.0
1979-08-05 00:02:35.330 ,3,1,0.,12.0,0.,12.0,0.,12.0,0.,12.0
1979-08-05 00:02:47.330 ,3,0,0.,12.0,0.,12.0,0.,12.0,0.,12.0
1979-08-05 00:02:59.330 ,3,0,0.,12.0,0.,12.0,0.,12.0,0.,12.0
1979-08-05 00:03:11.330 ,4,1,0.,12.0,0.,12.0,0.,12.0,0.,12.0
1979-08-05 00:03:23.330 ,4,1,0.,12.0,0.,12.0,0.,12.0,0.,12.0
1979-08-05 00:03:35.330 ,4,0,0.,12.0,0.,12.0,0.,12.0,0.,12.0
1979-08-05 00:03:47.330 ,4,0,0.,12.0,0.,12.0,0.,12.0,0.,12.0
1979-08-05 00:03:59.330 ,5,1,0.,12.0,0.,12.0,0.,12.0,0.,12.0
1979-08-05 00:04:11.330 ,5,1,0.,12.0,0.,12.0,0.,12.0,0.,12.0
1979-08-05 00:04:23.330 ,5,0,0.,12.0,0.,12.0,0.,12.0,0.,12.0
1979-08-05 00:04:35.330 ,5,0,0.,12.0,0.,12.0,0.,12.0,0.,12.0
1979-08-05 00:04:47.330 ,6,1,0.,12.0,0.,12.0,0.,12.0,0.,12.0
1979-08-05 00:04:59.330 ,6,1,0.,12.0,0.,12.0,0.,12.0,0.,12.0
1979-08-05 00:05:11.330 ,6,0,0.,12.0,0.,12.0,0.,12.0,0.,12.0
1979-08-05 00:05:23.330 ,6,0,0.,12.0,0.,12.0,0.,12.0,0.,12.0
1979-08-05 00:05:35.330 ,7,1,0.,12.0,0.,12.0,0.,12.0,0.,12.0
1979-08-05 00:05:47.330 ,7,1,0.,12.0,0.,12.0,0.,12.0,0.,12.0
1979-08-05 00:05:59.330 ,7,0,0.,12.0,0.,12.0,0.,12.0,0.,12.0
1979-08-05 00:06:11.330 ,7,0,0.,12.0,0.,12.0,0.,12.0,0.,12.0
1979-08-05 00:06:23.330 ,7,1,0.,12.0,0.,12.0,0.,12.0,0.,12.0
1979-08-05 00:06:35.330 ,7,1,0.,12.0,0.,12.0,0.,12.0,0.,12.0
1979-08-05 00:06:47.330 ,7,0,0.,12.0,0.,12.0,0.,12.0,0.,12.0
1979-08-05 00:06:59.330 ,7,0,0.,12.0,0.,12.0,0.,12.0,0.,12.0
1979-08-05 00:07:11.330 ,6,1,0.,12.0,0.,12.0,0.,12.0,0.,12.0
1979-08-05 00:07:23.330 ,6,1,0.,12.0,0.,12.0,0.,12.0,0.,12.0
1979-08-05 00:07:35.330 ,6,0,0.,12.0,0.,12.0,0.,12.0,0.,12.0
1979-08-05 00:07:47.330 ,6,0,0.,12.0,0.,12.0,0.,12.0,0.,12.0
1979-08-05 00:07:59.330 ,5,1,0.,12.0,0.,12.0,0.,12.0,0.,12.0
1979-08-05 00:08:11.330 ,5,1,0.,12.0,0.,12.0,0.,12.0,0.,12.0
1979-08-05 00:08:23.330 ,5,0,0.,12.0,0.,12.0,0.,12.0,0.,12.0
1979-08-05 00:08:35.330 ,5,0,0.,12.0,0.,12.0,0.,12.0,0.,12.0
1979-08-05 00:08:47.330 ,4,1,0.,12.0,0.,12.0,0.,12.0,0.,12.0
1979-08-05 00:08:59.330 ,4,1,0.,12.0,0.,12.0,0.,12.0,0.,12.0
1979-08-05 00:09:11.330 ,4,0,0.,12.0,0.,12.0,0.,12.0,0.,12.0
1979-08-05 00:09:23.330 ,4,0,0.,12.0,0.,12.0,0.,12.0,0.,12.0
1979-08-05 00:09:35.330 ,3,1,0.,12.0,0.,12.0,0.,12.0,0.,12.0
1979-08-05 00:09:47.330 ,3,1,0.,12.0,0.,12.0,0.,12.0,0.,12.0
1979-08-05 00:09:59.330 ,3,0,0.,12.0,0.,12.0,0.,12.0,0.,12.0
1979-08-05 00:10:11.330 ,3,0,0.,12.0,0.,12.0,0.,12.0,0.,12.0
1979-08-05 00:10:23.330 ,2,1,0.,12.0,0.,12.0,0.,12.0,0.,12.0
1979-08-05 00:10:35.330 ,2,1,0.,12.0,0.,12.0,0.,12.0,0.,12.0
1979-08-05 00:10:47.330 ,2,0,0.,12.0,0.,12.0,0.,12.0,0.,12.0
1979-08-05 00:10:59.330 ,2,0,0.,12.0,0.,12.0,0.,12.0,0.,12.0
1979-08-05 00:11:11.330 ,1,1,0.,12.0,0.,12.0,0.,12.0,0.,12.0
1979-08-05 00:11:23.330 ,1,1,0.,12.0,0.,12.0,0.,12.0,0.,12.0
1979-08-05 00:11:35.330 ,1,0,0.,12.0,0.,12.0,0.,12.0,0.,12.0
1979-08-05 00:11:47.330 ,1,0,0.,12.0,0.,12.0,0.,12.0,0.,12.0
1979-08-05 00:11:59.330 ,0,1,0.,12.0,0.,12.0,0.,12.0,0.,12.0
1979-08-05 00:12:11.330 ,0,1,0.,12.0,0.,12.0,0.,12.0,0.,12.0
1979-08-05 00:12:23.330 ,0,0,0.,12.0,0.,12.0,0.,12.0,0.,12.0
1979-08-05 00:12:35.330 ,0,0,0.,12.0,0.,12.0,0.,12.0,0.,12.0
1979-08-05 00:12:47.330 ,0,1,0.,12.0,0.,12.0,0.,12.0,0.,12.0
1979-08-05 00:12:59.330 ,0,1,0.,12.0,0.,12.0,0.,12.0,0.,12.0
1979-08-05 00:13:11.330 ,0,0,0.,12.0,0.,12.0,0.,12.0,0.,12.0
1979-08-05 00:13:23.330 ,0,0,0.,12.0,0.,12.0,0.,12.0,0.,12.0
1979-08-05 00:13:35.330 ,1,1,0.,12.0,0.,12.0,0.,12.0,0.,12.0
1979-08-05 00:13:47.330 ,1,1,0.,12.0,0.,12.0,0.,12.0,0.,12.0
1979-08-05 00:13:59.330 ,1,0,0.,12.0,0.,12.0,0.,12.0,0.,12.0
1979-08-05 00:14:11.330 ,1,0,0.,12.0,0.,12.0,0.,12.0,0.,12.0
1979-08-05 00:14:23.330 ,2,1,0.,12.0,0.,12.0,0.,12.0,0.,12.0
1979-08-05 00:14:35.330 ,2,1,0.,12.0,0.,12.0,0.,12.0,0.,12.0
1979-08-05 00:14:47.330 ,2,0,0.,12.0,0.,12.0,0.,12.0,0.,12.0
1979-08-05 00:14:59.330 ,2,0,0.,12.0,0.,12.0,0.,12.0,0.,12.0
1979-08-05 00:15:11.330 ,3,1,0.,12.0,0.,12.0,0.,12.0,0.,12.0
1979-08-05 00:15:23.330 ,3,1,0.,12.0,0.,12.0,0.,12.0,0.,12.0
1979-08-05 00:15:35.330 ,3,0,0.,12.0,0.,12.0,0.,12.0,0.,12.0
1979-08-05 00:15:47.330 ,3,0,0.,12.0,0.,12.0,0.,12.0,0.,12.0
1979-08-05 00:15:59.330 ,4,1,0.,12.0,0.,12.0,0.,12.0,0.,12.0
1979-08-05 00:16:11.330 ,4,1,0.,12.0,0.,12.0,0.,12.0,0.,12.0
1979-08-05 00:16:23.330 ,4,0,0.,12.0,0.,12.0,0.,12.0,0.,12.0
1979-08-05 00:16:35.330 ,4,0,0.,12.0,0.,12.0,0.,12.0,0.,12.0
1979-08-05 00:16:47.330 ,5,1,0.,12.0,0.,12.0,0.,12.0,0.,12.0
1979-08-05 00:16:59.330 ,5,1,0.,12.0,0.,12.0,0.,12.0,0.,12.0
1979-08-05 00:17:11.330 ,5,0,0.,12.0,0.,12.0,0.,12.0,0.,12.0
1979-08-05 00:17:23.330 ,5,0,0.,12.0,0.,12.0,0.,12.0,0.,12.0
1979-08-05 00:17:35.330 ,6,1,0.,12.0,0.,12.0,0.,12.0,0.,12.0
1979-08-05 00:17:47.330 ,6,1,0.,12.0,0.,12.0,0.,12.0,0.,12.0
1979-08-05 00:17:59.330 ,6,0,0.,12.0,0.,12.0,0.,12.0,0.,12.0
1979-08-05 00:18:11.330 ,6,0,0.,12.0,0.,12.0,0.,12.0,0.,12.0
1979-08-05 00:18:23.330 ,7,0,0.,12.0,0.,12.0,0.,12.0,0.,12.0
1979-08-05 00:18:35.330 ,7,0,0.,12.0,0.,12.0,0.,12.0,0.,12.0
1979-08-05 00:18:47.330 ,7,0,0.,12.0,0.,12.0,0.,12.0,0.,12.0
1979-08-05 00:18:59.330 ,7,0,0.,12.0,0.,12.0,0.,12.0,0.,12.0
1979-08-05 00:19:11.330 ,4,1,0.,12.0,0.,12.0,0.,12.0,0.,12.0
1979-08-05 00:19:23.330 ,4,1,0.,12.0,0.,12.0,0.,12.0,0.,12.0
1979-08-05 00:19:35.330 ,0,1,0.,12.0,0.,12.0,0.,12.0,0.,12.0
1979-08-05 00:19:47.330 ,0,1,0.,12.0,0.,12.0,0.,12.0,0.,12.0
1979-08-05 00:19:59.330 ,3,1,0.,12.0,0.,12.0,0.,12.0,0.,12.0
1979-08-05 00:20:11.330 ,3,1,0.,12.0,0.,12.0,0.,12.0,0.,12.0
1979-08-05 00:20:23.330 ,7,1,0.,12.0,0.,12.0,0.,12.0,0.,12.0
1979-08-05 00:20:35.330 ,7,1,0.,12.0,0.,12.0,0.,12.0,0.,12.0
1979-08-05 00:20:47.330 ,4,1,0.,12.0,0.,12.0,0.,12.0,0.,12.0
1979-08-05 00:20:59.330 ,4,1,0.,12.0,0.,12.0,0.,12.0,0.,12.0
1979-08-05 00:21:11.330 ,0,1,0.,12.0,0.,12.0,0.,12.0,0.,12.0
1979-08-05 00:21:23.330 ,0,1,0.,12.0,0.,12.0,0.,12.0,0.,12.0
1979-08-05 00:21:35.330 ,3,1,0.,12.0,0.,12.0,0.,12.0,0.,12.0
1979-08-05 00:21:47.330 ,3,1,0.,12.0,0.,12.0,0.,12.0,0.,12.0
1979-08-05 00:21:59.330 ,7,1,0.,12.0,0.,12.0,0.,12.0,0.,12.0
1979-08-05 00:22:11.330 ,7,1,0.,12.0,0.,12.0,0.,12.0,0.,12.0
1979-08-05 00:22:23.330 ,4,1,0.,12.0,0.,12.0,0.,12.0,0.,12.0
1979-08-05 00:22:35.330 ,4,1,0.,12.0,0.,12.0,0.,12.0,0.,12.0
1979-08-05 00:22:47.330 ,0,1,0.,12.0,0.,12.0,0.,12.0,0.,12.0
1979-08-05 00:22:59.330 ,0,1,0.,12.0,0.,12.0,0.,12.0,0.,12.0
1979-08-05 00:23:11.330 ,3,1,0.,12.0,0.,12.0,0.,12.0,0.,12.0
1979-08-05 00:23:23.330 ,3,1,0.,12.0,0.,12.0,0.,12.0,0.,12.0
1979-08-05 00:23:35.330 ,7,1,0.,12.0,0.,12.0,0.,12.0,0.,12.0
1979-08-05 00:23:47.330 ,7,1,0.,12.0,0.,12.0,0.,12.0,0.,12.0
1979-08-05 00:23:59.330 ,4,1,0.,12.0,0.,12.0,0.,12.0,0.,12.0
1979-08-05 00:24:11.330 ,4,1,0.,12.0,0.,12.0,0.,12.0,0.,12.0
1979-08-05 00:24:23.330 ,0,1,0.,12.0,0.,12.0,0.,12.0,0.,12.0
1979-08-05 00:24:35.330 ,0,1,0.,12.0,0.,12.0,0.,12.0,0.,12.0
1979-08-05 00:24:47.330 ,3,1,0.,12.0,0.,12.0,0.,12.0,0.,12.0
1979-08-05 00:24:59.330 ,3,1,0.,12.0,0.,12.0,0.,12.0,0.,12.0
1979-08-05 00:25:11.330 ,7,1,0.,12.0,0.,12.0,0.,12.0,0.,12.0
1979-08-05 00:25:23.330 ,7,1,0.,12.0,0.,12.0,0.,12.0,0.,12.0
1979-08-05 00:25:35.330 ,4,1,0.,12.0,0.,12.0,0.,12.0,0.,12.0
1979-08-05 00:25:47.330 ,4,1,0.,12.0,0.,12.0,0.,12.0,0.,12.0
1979-08-05 00:25:59.330 ,0,1,0.,12.0,0.,12.0,0.,12.0,0.,12.0
1979-08-05 00:26:11.330 ,0,1,0.,12.0,0.,12.0,0.,12.0,0.,12.0
1979-08-05 00:26:23.330 ,3,1,0.,12.0,0.,12.0,0.,12.0,0.,12.0
1979-08-05 00:26:35.330 ,3,1,0.,12.0,0.,12.0,0.,12.0,0.,12.0
1979-08-05 00:26:47.330 ,7,1,0.,12.0,0.,12.0,0.,12.0,0.,12.0
1979-08-05 00:26:59.330 ,7,1,0.,12.0,0.,12.0,0.,12.0,0.,12.0
1979-08-05 00:27:11.330 ,4,1,0.,12.0,0.,12.0,0.,12.0,0.,12.0
1979-08-05 00:27:23.330 ,4,1,0.,12.0,0.,12.0,0.,12.0,0.,12.0
1979-08-05 00:27:35.330 ,0,1,0.,12.0,0.,12.0,0.,12.0,0.,12.0
1979-08-05 00:27:47.330 ,0,1,0.,12.0,0.,12.0,0.,12.0,0.,12.0
1979-08-05 00:27:59.330 ,3,1,0.,12.0,0.,12.0,0.,12.0,0.,12.0
1979-08-05 00:28:11.330 ,3,1,0.,12.0,0.,12.0,0.,12.0,0.,12.0
1979-08-05 00:28:23.330 ,7,1,0.,12.0,0.,12.0,0.,12.0,0.,12.0
1979-08-05 00:28:35.330 ,7,1,0.,12.0,0.,12.0,0.,12.0,0.,12.0
1979-08-05 00:28:47.330 ,4,1,0.,12.0,0.,12.0,0.,12.0,0.,12.0
1979-08-05 00:28:59.330 ,4,1,0.,12.0,0.,12.0,0.,12.0,0.,12.0
1979-08-05 00:29:11.330 ,0,1,0.,12.0,0.,12.0,0.,12.0,0.,12.0
1979-08-05 00:29:23.330 ,0,1,0.,12.0,0.,12.0,0.,12.0,0.,12.0
1979-08-05 00:29:35.330 ,0,0,0.,12.0,0.,12.0,0.,12.0,0.,12.0
1979-08-05 00:29:47.330 ,0,0,0.,12.0,0.,12.0,0.,12.0,0.,12.0
1979-08-05 00:29:59.330 ,0,0,0.,12.0,0.,12.0,0.,12.0,0.,12.0
1979-08-05 00:30:11.330 ,0,0,0.,12.0,0.,12.0,0.,12.0,0.,12.0
1979-08-05 00:30:23.330 ,5,1,0.,12.0,0.,12.0,0.,12.0,0.,12.0
1979-08-05 00:30:35.330 ,5,1,0.,12.0,0.,12.0,0.,12.0,0.,12.0
1979-08-05 00:30:47.330 ,5,0,0.,12.0,0.,12.0,0.,12.0,0.,12.0
1979-08-05 00:30:59.330 ,5,0,0.,12.0,0.,12.0,0.,12.0,0.,12.0
1979-08-05 00:31:11.330 ,4,1,0.,12.0,0.,12.0,0.,12.0,0.,12.0
1979-08-05 00:31:23.330 ,4,1,0.,12.0,0.,12.0,0.,12.0,0.,12.0
1979-08-05 00:31:35.330 ,4,0,0.,12.0,0.,12.0,0.,12.0,0.,12.0
1979-08-05 00:31:47.330 ,4,0,0.,12.0,0.,12.0,0.,12.0,0.,12.0
1979-08-05 00:31:59.330 ,3,1,0.,12.0,0.,12.0,0.,12.0,0.,12.0
1979-08-05 00:32:11.330 ,3,1,0.,12.0,0.,12.0,0.,12.0,0.,12.0
1979-08-05 00:32:23.330 ,3,0,0.,12.0,0.,12.0,0.,12.0,0.,12.0
1979-08-05 00:32:35.330 ,3,0,0.,12.0,0.,12.0,0.,12.0,0.,12.0
1979-08-05 00:32:47.330 ,2,1,0.,12.0,0.,12.0,0.,12.0,0.,12.0
1979-08-05 00:32:59.330 ,2,1,0.,12.0,0.,12.0,0.,12.0,0.,12.0
1979-08-05 00:33:11.330 ,2,0,0.,12.0,0.,12.0,0.,12.0,0.,12.0
1979-08-05 00:33:23.330 ,2,0,0.,12.0,0.,12.0,0.,12.0,0.,12.0
1979-08-05 00:33:35.330 ,1,1,0.,12.0,0.,12.0,0.,12.0,0.,12.0
1979-08-05 00:33:47.330 ,1,1,0.,12.0,0.,12.0,0.,12.0,0.,12.0
1979-08-05 00:33:59.330 ,1,0,0.,12.0,0.,12.0,0.,12.0,0.,12.0
1979-08-05 00:34:11.330 ,1,0,0.,12.0,0.,12.0,0.,12.0,0.,12.0
1979-08-05 00:34:23.330 ,0,1,0.,12.0,0.,12.0,0.,12.0,1.,12.0
1979-08-05 00:34:35.330 ,0,1,0.,12.0,0.,12.0,0.,12.0,0.,12.0
1979-08-05 00:34:47.330 ,0,0,0.,12.0,0.,12.0,0.,12.0,0.,12.0
1979-08-05 00:34:59.330 ,0,0,0.,12.0,0.,12.0,0.,12.0,0.,12.0
1979-08-05 00:35:11.330 ,0,1,0.,12.0,0.,12.0,0.,12.0,0.,12.0
1979-08-05 00:35:23.330 ,0,1,0.,12.0,0.,12.0,0.,12.0,0.,12.0
1979-08-05 00:35:35.330 ,0,0,0.,12.0,0.,12.0,0.,12.0,0.,12.0
1979-08-05 00:35:47.330 ,0,0,0.,12.0,0.,12.0,0.,12.0,0.,12.0
1979-08-05 00:35:59.330 ,1,1,0.,12.0,0.,12.0,0.,12.0,0.,12.0
1979-08-05 00:36:11.330 ,1,1,0.,12.0,0.,12.0,0.,12.0,0.,12.0
1979-08-05 00:36:23.330 ,1,0,0.,12.0,0.,12.0,0.,12.0,0.,12.0
1979-08-05 00:36:35.330 ,1,0,0.,12.0,0.,12.0,0.,12.0,0.,12.0
1979-08-05 00:36:47.330 ,2,1,0.,12.0,0.,12.0,0.,12.0,0.,12.0
1979-08-05 00:36:59.330 ,2,1,0.,12.0,0.,12.0,0.,12.0,0.,12.0
1979-08-05 00:37:11.330 ,2,0,0.,12.0,0.,12.0,0.,12.0,0.,12.0
1979-08-05 00:37:23.330 ,2,0,0.,12.0,0.,12.0,0.,12.0,0.,12.0
1979-08-05 00:37:35.330 ,3,1,0.,12.0,0.,12.0,0.,12.0,0.,12.0
1979-08-05 00:37:47.330 ,3,1,0.,12.0,0.,12.0,0.,12.0,0.,12.0
1979-08-05 00:37:59.330 ,3,0,0.,12.0,0.,12.0,0.,12.0,0.,12.0
1979-08-05 00:38:11.330 ,3,0,0.,12.0,0.,12.0,0.,12.0,0.,12.0
1979-08-05 00:38:23.330 ,4,1,0.,12.0,0.,12.0,0.,12.0,0.,12.0
1979-08-05 00:38:35.330 ,4,1,0.,12.0,0.,12.0,0.,12.0,0.,12.0
1979-08-05 00:38:47.330 ,4,0,0.,12.0,0.,12.0,0.,12.0,0.,12.0
1979-08-05 00:38:59.330 ,4,0,0.,12.0,0.,12.0,0.,12.0,0.,12.0
1979-08-05 00:39:11.330 ,5,1,0.,12.0,0.,12.0,0.,12.0,0.,12.0
1979-08-05 00:39:23.330 ,5,1,0.,12.0,0.,12.0,0.,12.0,0.,12.0
1979-08-05 00:39:35.330 ,5,0,0.,12.0,0.,12.0,0.,12.0,0.,12.0
1979-08-05 00:39:47.330 ,5,0,0.,12.0,0.,12.0,0.,12.0,0.,12.0
1979-08-05 00:39:59.330 ,6,1,0.,12.0,0.,12.0,0.,12.0,0.,12.0
1979-08-05 00:40:11.330 ,6,1,0.,12.0,0.,12.0,0.,12.0,0.,12.0
1979-08-05 00:40:23.330 ,6,0,0.,12.0,0.,12.0,0.,12.0,0.,12.0
1979-08-05 00:40:35.330 ,6,0,0.,12.0,0.,12.0,0.,12.0,0.,12.0
1979-08-05 00:40:47.330 ,7,1,0.,12.0,0.,12.0,0.,12.0,0.,12.0
1979-08-05 00:40:59.330 ,7,1,0.,12.0,0.,12.0,0.,12.0,0.,12.0
1979-08-05 00:41:11.330 ,7,0,0.,12.0,0.,12.0,0.,12.0,0.,12.0
1979-08-05 00:41:23.330 ,7,0,0.,12.0,0.,12.0,0.,12.0,0.,12.0
1979-08-05 00:41:35.330 ,7,1,0.,12.0,0.,12.0,0.,12.0,0.,12.0
1979-08-05 00:41:47.330 ,7,1,0.,12.0,0.,12.0,0.,12.0,0.,12.0
1979-08-05 00:41:59.330 ,7,0,0.,12.0,0.,12.0,0.,12.0,0.,12.0
1979-08-05 00:42:11.330 ,7,0,0.,12.0,0.,12.0,0.,12.0,0.,12.0
1979-08-05 00:42:23.330 ,6,1,0.,12.0,0.,12.0,0.,12.0,0.,12.0
1979-08-05 00:42:35.330 ,6,1,0.,12.0,0.,12.0,0.,12.0,0.,12.0
1979-08-05 00:42:47.330 ,6,0,0.,12.0,0.,12.0,0.,12.0,0.,12.0
1979-08-05 00:42:59.330 ,6,0,0.,12.0,0.,12.0,0.,12.0,0.,12.0
1979-08-05 00:43:11.330 ,5,1,0.,12.0,0.,12.0,0.,12.0,0.,12.0
1979-08-05 00:43:23.330 ,5,1,0.,12.0,0.,12.0,0.,12.0,0.,12.0
1979-08-05 00:43:35.330 ,5,0,0.,12.0,0.,12.0,0.,12.0,0.,12.0
1979-08-05 00:43:47.330 ,5,0,0.,12.0,0.,12.0,0.,12.0,0.,12.0
1979-08-05 00:43:59.330 ,4,1,0.,12.0,0.,12.0,0.,12.0,0.,12.0
1979-08-05 00:44:11.330 ,4,1,0.,12.0,0.,12.0,0.,12.0,0.,12.0
1979-08-05 00:44:23.330 ,4,0,0.,12.0,0.,12.0,0.,12.0,0.,12.0
1979-08-05 00:44:35.330 ,4,0,0.,12.0,0.,12.0,0.,12.0,0.,12.0
1979-08-05 00:44:47.330 ,3,1,0.,12.0,0.,12.0,0.,12.0,0.,12.0
1979-08-05 00:44:59.330 ,3,1,0.,12.0,0.,12.0,0.,12.0,0.,12.0
1979-08-05 00:45:11.330 ,3,0,0.,12.0,0.,12.0,0.,12.0,0.,12.0
1979-08-05 00:45:23.330 ,3,0,0.,12.0,0.,12.0,0.,12.0,0.,12.0
1979-08-05 00:45:35.330 ,2,1,0.,12.0,0.,12.0,0.,12.0,0.,12.0
1979-08-05 00:45:47.330 ,2,1,0.,12.0,0.,12.0,0.,12.0,0.,12.0
1979-08-05 00:45:59.330 ,2,0,0.,12.0,0.,12.0,0.,12.0,0.,12.0
1979-08-05 00:46:11.330 ,2,0,0.,12.0,0.,12.0,0.,12.0,0.,12.0
1979-08-05 00:46:23.330 ,1,1,0.,12.0,0.,12.0,0.,12.0,0.,12.0
1979-08-05 00:46:35.330 ,1,1,0.,12.0,0.,12.0,0.,12.0,0.,12.0
1979-08-05 00:46:47.330 ,1,0,0.,12.0,0.,12.0,0.,12.0,0.,12.0
1979-08-05 00:46:59.330 ,1,0,0.,12.0,0.,12.0,0.,12.0,0.,12.0
1979-08-05 00:47:11.330 ,0,1,0.,12.0,0.,12.0,0.,12.0,0.,12.0
1979-08-05 00:47:23.330 ,0,1,0.,12.0,0.,12.0,0.,12.0,0.,12.0
1979-08-05 00:47:35.330 ,0,0,0.,12.0,0.,12.0,0.,12.0,0.,12.0
1979-08-05 00:47:47.330 ,0,0,0.,12.0,0.,12.0,0.,12.0,0.,12.0
1979-08-05 00:47:59.330 ,0,1,0.,12.0,0.,12.0,0.,12.0,0.,12.0
1979-08-05 00:48:11.330 ,0,1,0.,12.0,0.,12.0,0.,12.0,0.,12.0
1979-08-05 00:48:23.330 ,0,0,0.,12.0,0.,12.0,0.,12.0,0.,12.0
1979-08-05 00:48:35.330 ,0,0,0.,12.0,0.,12.0,0.,12.0,0.,12.0
1979-08-05 00:48:47.330 ,1,1,0.,12.0,0.,12.0,0.,12.0,0.,12.0
1979-08-05 00:48:59.330 ,1,1,0.,12.0,0.,12.0,0.,12.0,0.,12.0
1979-08-05 00:49:11.330 ,1,0,0.,12.0,0.,12.0,0.,12.0,0.,12.0
1979-08-05 00:49:23.330 ,1,0,0.,12.0,0.,12.0,0.,12.0,0.,12.0
1979-08-05 00:49:35.330 ,2,1,0.,12.0,0.,12.0,0.,12.0,0.,12.0
1979-08-05 00:49:47.330 ,2,1,0.,12.0,0.,12.0,0.,12.0,0.,12.0
1979-08-05 00:49:59.330 ,2,0,0.,12.0,0.,12.0,0.,12.0,0.,12.0
1979-08-05 00:50:11.330 ,2,0,0.,12.0,0.,12.0,0.,12.0,0.,12.0
1979-08-05 00:50:23.330 ,3,1,0.,12.0,0.,12.0,0.,12.0,0.,12.0
1979-08-05 00:50:35.330 ,3,1,0.,12.0,0.,12.0,0.,12.0,0.,12.0
1979-08-05 00:50:47.330 ,3,0,0.,12.0,0.,12.0,0.,12.0,0.,12.0
1979-08-05 00:50:59.330 ,3,0,0.,12.0,0.,12.0,0.,12.0,0.,12.0
1979-08-05 00:51:11.330 ,4,1,0.,12.0,0.,12.0,0.,12.0,0.,12.0
1979-08-05 00:51:23.330 ,4,1,0.,12.0,0.,12.0,0.,12.0,0.,12.0
1979-08-05 00:51:35.330 ,4,0,0.,12.0,0.,12.0,0.,12.0,0.,12.0
1979-08-05 00:51:47.330 ,4,0,0.,12.0,0.,12.0,0.,12.0,0.,12.0
1979-08-05 00:51:59.330 ,5,1,0.,12.0,0.,12.0,0.,12.0,0.,12.0
1979-08-05 00:52:11.330 ,5,1,0.,12.0,0.,12.0,0.,12.0,0.,12.0
1979-08-05 00:52:23.330 ,5,0,0.,12.0,0.,12.0,0.,12.0,0.,12.0
1979-08-05 00:52:35.330 ,5,0,0.,12.0,0.,12.0,0.,12.0,0.,12.0
1979-08-05 00:52:47.330 ,6,1,0.,12.0,0.,12.0,0.,12.0,0.,12.0
1979-08-05 00:52:59.330 ,6,1,0.,12.0,0.,12.0,0.,12.0,0.,12.0
1979-08-05 00:53:11.330 ,6,0,0.,12.0,0.,12.0,0.,12.0,0.,12.0
1979-08-05 00:53:23.330 ,6,0,0.,12.0,0.,12.0,0.,12.0,0.,12.0
1979-08-05 00:53:35.330 ,7,1,0.,12.0,0.,12.0,0.,12.0,0.,12.0
1979-08-05 00:53:47.330 ,7,1,0.,12.0,0.,12.0,0.,12.0,0.,12.0
1979-08-05 00:53:59.330 ,7,0,0.,12.0,0.,12.0,0.,12.0,0.,12.0
1979-08-05 00:54:11.330 ,7,0,0.,12.0,0.,12.0,0.,12.0,0.,12.0
1979-08-05 00:54:23.330 ,7,1,0.,12.0,0.,12.0,0.,12.0,0.,12.0
1979-08-05 00:54:35.330 ,7,1,0.,12.0,0.,12.0,0.,12.0,0.,12.0
1979-08-05 00:54:47.330 ,7,0,0.,12.0,0.,12.0,0.,12.0,0.,12.0
1979-08-05 00:54:59.330 ,7,0,0.,12.0,0.,12.0,0.,12.0,0.,12.0
1979-08-05 00:55:11.330 ,6,1,0.,12.0,0.,12.0,0.,12.0,0.,12.0
1979-08-05 00:55:23.330 ,6,1,0.,12.0,0.,12.0,0.,12.0,0.,12.0
1979-08-05 00:55:35.330 ,6,0,0.,12.0,0.,12.0,0.,12.0,0.,12.0
1979-08-05 00:55:47.330 ,6,0,0.,12.0,0.,12.0,0.,12.0,0.,12.0
1979-08-05 00:55:59.330 ,5,1,0.,12.0,0.,12.0,0.,12.0,0.,12.0
1979-08-05 00:56:11.330 ,5,1,0.,12.0,0.,12.0,0.,12.0,1.,12.0
1979-08-05 00:56:23.330 ,5,0,0.,12.0,0.,12.0,0.,12.0,0.,12.0
1979-08-05 00:56:35.330 ,5,0,0.,12.0,0.,12.0,0.,12.0,0.,12.0
1979-08-05 00:56:47.330 ,4,1,0.,12.0,0.,12.0,0.,12.0,0.,12.0
1979-08-05 00:56:59.330 ,4,1,0.,12.0,0.,12.0,0.,12.0,0.,12.0
1979-08-05 00:57:11.330 ,4,0,0.,12.0,0.,12.0,0.,12.0,0.,12.0
1979-08-05 00:57:23.330 ,4,0,0.,12.0,0.,12.0,0.,12.0,0.,12.0
1979-08-05 00:57:35.330 ,3,1,0.,12.0,0.,12.0,0.,12.0,0.,12.0
1979-08-05 00:57:47.330 ,3,1,0.,12.0,0.,12.0,0.,12.0,0.,12.0
1979-08-05 00:57:59.330 ,3,0,0.,12.0,0.,12.0,0.,12.0,0.,12.0
1979-08-05 00:58:11.330 ,3,0,0.,12.0,0.,12.0,0.,12.0,0.,12.0
1979-08-05 00:58:23.330 ,2,1,0.,12.0,0.,12.0,0.,12.0,0.,12.0
1979-08-05 00:58:35.330 ,2,1,0.,12.0,0.,12.0,0.,12.0,0.,12.0
1979-08-05 00:58:47.330 ,2,0,0.,12.0,0.,12.0,0.,12.0,0.,12.0
1979-08-05 00:58:59.330 ,2,0,0.,12.0,0.,12.0,0.,12.0,0.,12.0
1979-08-05 00:59:11.330 ,1,1,0.,12.0,0.,12.0,0.,12.0,0.,12.0
1979-08-05 00:59:23.330 ,1,1,0.,12.0,0.,12.0,0.,12.0,0.,12.0
1979-08-05 00:59:35.330 ,1,0,0.,12.0,0.,12.0,0.,12.0,0.,12.0
1979-08-05 00:59:47.330 ,1,0,0.,12.0,0.,12.0,0.,12.0,0.,12.0
1979-08-05 00:59:59.330 ,0,1,0.,12.0,0.,12.0,0.,12.0,0.,12.0
1979-08-05 01:00:11.330 ,0,1,0.,12.0,0.,12.0,0.,12.0,0.,12.0
1979-08-05 01:00:23.330 ,0,0,0.,12.0,0.,12.0,0.,12.0,0.,12.0
1979-08-05 01:00:35.330 ,0,0,0.,12.0,0.,12.0,0.,12.0,0.,12.0
1979-08-05 01:00:47.330 ,0,1,0.,12.0,0.,12.0,0.,12.0,0.,12.0
1979-08-05 01:00:59.330 ,0,1,0.,12.0,0.,12.0,0.,12.0,0.,12.0
1979-08-05 01:01:11.330 ,0,0,0.,12.0,0.,12.0,0.,12.0,0.,12.0
1979-08-05 01:01:23.330 ,0,0,0.,12.0,0.,12.0,0.,12.0,0.,12.0
1979-08-05 01:01:35.330 ,1,1,0.,12.0,0.,12.0,0.,12.0,0.,12.0
1979-08-05 01:01:47.330 ,1,1,0.,12.0,0.,12.0,0.,12.0,0.,12.0
1979-08-05 01:01:59.330 ,1,0,0.,12.0,0.,12.0,0.,12.0,0.,12.0
1979-08-05 01:02:11.330 ,1,0,0.,12.0,0.,12.0,0.,12.0,0.,12.0
1979-08-05 01:02:23.330 ,2,1,0.,12.0,0.,12.0,0.,12.0,0.,12.0
1979-08-05 01:02:35.330 ,2,1,0.,12.0,0.,12.0,0.,12.0,0.,12.0
1979-08-05 01:02:47.330 ,2,0,0.,12.0,0.,12.0,0.,12.0,0.,12.0
1979-08-05 01:02:59.330 ,2,0,0.,12.0,0.,12.0,0.,12.0,0.,12.0
1979-08-05 01:03:11.330 ,3,1,0.,12.0,0.,12.0,0.,12.0,0.,12.0
1979-08-05 01:03:23.330 ,3,1,0.,12.0,0.,12.0,0.,12.0,0.,12.0
1979-08-05 01:03:35.330 ,3,0,0.,12.0,0.,12.0,0.,12.0,0.,12.0
1979-08-05 01:03:47.330 ,3,0,0.,12.0,0.,12.0,0.,12.0,0.,12.0
1979-08-05 01:03:59.330 ,4,1,0.,12.0,0.,12.0,0.,12.0,0.,12.0
1979-08-05 01:04:11.330 ,4,1,0.,12.0,0.,12.0,0.,12.0,0.,12.0
1979-08-05 01:04:23.330 ,4,0,0.,12.0,0.,12.0,0.,12.0,0.,12.0
1979-08-05 01:04:35.330 ,4,0,0.,12.0,0.,12.0,0.,12.0,0.,12.0
1979-08-05 01:04:47.330 ,5,1,0.,12.0,0.,12.0,0.,12.0,0.,12.0
1979-08-05 01:04:59.330 ,5,1,0.,12.0,0.,12.0,0.,12.0,0.,12.0
1979-08-05 01:05:11.330 ,5,0,0.,12.0,0.,12.0,0.,12.0,0.,12.0
1979-08-05 01:05:23.330 ,5,0,0.,12.0,0.,12.0,0.,12.0,0.,12.0
1979-08-05 01:05:35.330 ,6,1,0.,12.0,0.,12.0,0.,12.0,0.,12.0
1979-08-05 01:05:47.330 ,6,1,0.,12.0,0.,12.0,0.,12.0,0.,12.0
1979-08-05 01:05:59.330 ,6,0,0.,12.0,0.,12.0,0.,12.0,0.,12.0
1979-08-05 01:06:11.330 ,6,0,0.,12.0,0.,12.0,0.,12.0,0.,12.0
1979-08-05 01:06:23.330 ,7,0,0.,12.0,0.,12.0,0.,12.0,0.,12.0
1979-08-05 01:06:35.330 ,7,0,0.,12.0,0.,12.0,0.,12.0,0.,12.0
1979-08-05 01:06:47.330 ,7,0,0.,12.0,0.,12.0,0.,12.0,0.,12.0
1979-08-05 01:06:59.330 ,7,0,0.,12.0,0.,12.0,0.,12.0,0.,12.0
1979-08-05 01:07:11.330 ,4,1,0.,12.0,0.,12.0,0.,12.0,0.,12.0
1979-08-05 01:07:23.330 ,4,1,0.,12.0,0.,12.0,0.,12.0,0.,12.0
1979-08-05 01:07:35.330 ,0,1,0.,12.0,0.,12.0,0.,12.0,0.,12.0
1979-08-05 01:07:47.330 ,0,1,0.,12.0,0.,12.0,0.,12.0,0.,12.0
1979-08-05 01:07:59.330 ,3,1,0.,12.0,0.,12.0,0.,12.0,0.,12.0
1979-08-05 01:08:11.330 ,3,1,0.,12.0,0.,12.0,0.,12.0,0.,12.0
1979-08-05 01:08:23.330 ,7,1,0.,12.0,0.,12.0,0.,12.0,0.,12.0
1979-08-05 01:08:35.330 ,7,1,0.,12.0,0.,12.0,0.,12.0,0.,12.0
1979-08-05 01:08:47.330 ,4,1,0.,12.0,0.,12.0,0.,12.0,0.,12.0
1979-08-05 01:08:59.330 ,4,1,0.,12.0,0.,12.0,0.,12.0,0.,12.0
1979-08-05 01:09:11.330 ,0,1,0.,12.0,0.,12.0,0.,12.0,0.,12.0
1979-08-05 01:09:23.330 ,0,1,0.,12.0,0.,12.0,0.,12.0,0.,12.0
1979-08-05 01:09:35.330 ,3,1,0.,12.0,0.,12.0,0.,12.0,0.,12.0
1979-08-05 01:09:47.330 ,3,1,0.,12.0,0.,12.0,0.,12.0,0.,12.0
1979-08-05 01:09:59.330 ,7,1,0.,12.0,0.,12.0,0.,12.0,0.,12.0
1979-08-05 01:10:11.330 ,7,1,0.,12.0,0.,12.0,0.,12.0,0.,12.0
1979-08-05 01:10:23.330 ,4,1,0.,12.0,0.,12.0,0.,12.0,0.,12.0
1979-08-05 01:10:35.330 ,4,1,0.,12.0,0.,12.0,0.,12.0,0.,12.0
1979-08-05 01:10:47.330 ,0,1,0.,12.0,0.,12.0,0.,12.0,0.,12.0
1979-08-05 01:10:59.330 ,0,1,0.,12.0,0.,12.0,0.,12.0,0.,12.0
1979-08-05 01:11:11.330 ,3,1,0.,12.0,0.,12.0,0.,12.0,0.,12.0
1979-08-05 01:11:23.330 ,3,1,0.,12.0,0.,12.0,0.,12.0,0.,12.0
1979-08-05 01:11:35.330 ,7,1,0.,12.0,0.,12.0,0.,12.0,0.,12.0
1979-08-05 01:11:47.330 ,7,1,0.,12.0,0.,12.0,0.,12.0,0.,12.0
1979-08-05 01:11:59.330 ,4,1,0.,12.0,0.,12.0,0.,12.0,0.,12.0
1979-08-05 01:12:11.330 ,4,1,0.,12.0,0.,12.0,0.,12.0,0.,12.0
1979-08-05 01:12:23.330 ,0,1,0.,12.0,0.,12.0,0.,12.0,0.,12.0
1979-08-05 01:12:35.330 ,0,1,0.,12.0,0.,12.0,0.,12.0,0.,12.0
1979-08-05 01:12:47.330 ,3,1,0.,12.0,0.,12.0,0.,12.0,0.,12.0
1979-08-05 01:12:59.330 ,3,1,0.,12.0,0.,12.0,0.,12.0,0.,12.0
1979-08-05 01:13:11.330 ,7,1,0.,12.0,0.,12.0,0.,12.0,0.,12.0
1979-08-05 01:13:23.330 ,7,1,0.,12.0,0.,12.0,0.,12.0,0.,12.0
1979-08-05 01:13:35.330 ,4,1,0.,12.0,0.,12.0,0.,12.0,0.,12.0
1979-08-05 01:13:47.330 ,4,1,0.,12.0,0.,12.0,0.,12.0,0.,12.0
1979-08-05 01:13:59.330 ,0,1,0.,12.0,0.,12.0,0.,12.0,0.,12.0
1979-08-05 01:14:11.330 ,0,1,0.,12.0,0.,12.0,0.,12.0,0.,12.0
1979-08-05 01:14:23.330 ,3,1,0.,12.0,0.,12.0,0.,12.0,0.,12.0
1979-08-05 01:14:35.330 ,3,1,0.,12.0,0.,12.0,0.,12.0,0.,12.0
1979-08-05 01:14:47.330 ,7,1,0.,12.0,0.,12.0,0.,12.0,0.,12.0
1979-08-05 01:14:59.330 ,7,1,0.,12.0,0.,12.0,0.,12.0,0.,12.0
1979-08-05 01:15:11.330 ,4,1,0.,12.0,0.,12.0,0.,12.0,0.,12.0
1979-08-05 01:15:23.330 ,4,1,0.,12.0,0.,12.0,0.,12.0,0.,12.0
1979-08-05 01:15:35.330 ,0,1,0.,12.0,0.,12.0,0.,12.0,0.,12.0
1979-08-05 01:15:47.330 ,0,1,0.,12.0,0.,12.0,0.,12.0,0.,12.0
1979-08-05 01:15:59.330 ,3,1,0.,12.0,0.,12.0,0.,12.0,0.,12.0
1979-08-05 01:16:11.330 ,3,1,0.,12.0,0.,12.0,0.,12.0,0.,12.0
1979-08-05 01:16:23.330 ,7,1,0.,12.0,0.,12.0,0.,12.0,0.,12.0
1979-08-05 01:16:35.330 ,7,1,0.,12.0,0.,12.0,0.,12.0,0.,12.0
1979-08-05 01:16:47.330 ,4,1,0.,12.0,0.,12.0,0.,12.0,0.,12.0
1979-08-05 01:16:59.330 ,4,1,0.,12.0,0.,12.0,0.,12.0,0.,12.0
1979-08-05 01:17:11.330 ,0,1,0.,12.0,0.,12.0,0.,12.0,0.,12.0
1979-08-05 01:17:23.330 ,0,1,0.,12.0,0.,12.0,0.,12.0,0.,12.0